QPF
0.01 0.01 0.00 0.00 0.00 0.00 0.00 0.00 0.01 0.01 0.00 0.00 0.00 0.00 0.00 0.01 0.01 0.01 0.00 0.00 0.01 0.01 0.01 0.01 0.02 0.02 0.02 0.03 0.04 0.04 0.04 0.04 0.04 0.04 0.04 0.05 0.06 0.06
0.01 0.01 0.00 0.00 0.00 0.00 0.00 0.00 0.01 0.01 0.01 0.00 0.00 0.00 0.00 0.01 0.01 0.01 0.01 0.01 0.01 0.01 0.01 0.02 0.02 0.02 0.02 0.03 0.03 0.03 0.03 0.03 0.03 0.04 0.04 0.05 0.05 0.05
0.01 0.01 0.00 0.00 0.00 0.00 0.00 0.00 0.00 0.01 0.01 0.01 0.00 0.01 0.01 0.01 0.01 0.00 0.00 0.01 0.01 0.01 0.01 0.01 0.02 0.02 0.03 0.03 0.03 0.03 0.03 0.03 0.04 0.04 0.05 0.05 0.05 0.04
0.02 0.01 0.01 0.00 0.00 0.00 0.00 0.00 0.00 0.01 0.01 0.01 0.01 0.01 0.01 0.00 0.00 0.00 0.00 0.00 0.00 0.01 0.00 0.00 0.01 0.02 0.02 0.03 0.03 0.04 0.04 0.04 0.04 0.04 0.04 0.04 0.05 0.05
0.01 0.01 0.01 0.01 0.00 0.00 0.00 0.00 0.01 0.01 0.01 0.01 0.01 0.01 0.00 0.00 0.01 0.00 0.00 0.00 0.00 0.00 0.01 0.01 0.01 0.01 0.02 0.02 0.03 0.04 0.04 0.04 0.04 0.04 0.04 0.04 0.03 0.04
0.01 0.01 0.01 0.01 0.01 0.01 0.01 0.01 0.01 0.01 0.01 0.02 0.01 0.01 0.01 0.00 0.00 0.00 0.00 0.00 0.00 0.00 0.00 0.01 0.01 0.01 0.01 0.02 0.03 0.03 0.04 0.04 0.04 0.04 0.04 0.03 0.03 0.03
0.01 0.02 0.02 0.02 0.01 0.01 0.02 0.02 0.01 0.02 0.02 0.02 0.02 0.01 0.01 0.01 0.00 0.00 0.00 0.00 0.00 0.00 0.00 0.01 0.01 0.01 0.02 0.03 0.03 0.03 0.03 0.03 0.03 0.04 0.04 0.04 0.03 0.03
0.01 0.02 0.02 0.02 0.02 0.02 0.02 0.02 0.02 0.02 0.02 0.02 0.02 0.02 0.01 0.01 0.01 0.01 0.01 0.01 0.01 0.01 0.01 0.01 0.01 0.01 0.01 0.02 0.04 0.04 0.04 0.04 0.04 0.04 0.04 0.04 0.04 0.04
0.01 0.01 0.02 0.03 0.03 0.02 0.02 0.02 0.01 0.01 0.02 0.02 0.02 0.01 0.01 0.01 0.01 0.01 0.01 0.01 0.01 0.01 0.01 0.01 0.01 0.02 0.02 0.02 0.04 0.04 0.04 0.04 0.04 0.04 0.04 0.04 0.04 0.05
0.01 0.01 0.02 0.02 0.03 0.03 0.02 0.02 0.01 0.01 0.01 0.01 0.01 0.01 0.01 0.01 0.01 0.01 0.01 0.01 0.01 0.01 0.01 0.02 0.01 0.02 0.02 0.03 0.04 0.04 0.04 0.04 0.04 0.03 0.03 0.03 0.04 0.04
0.02 0.02 0.02 0.02 0.03 0.03 0.03 0.03 0.02 0.01 0.01 0.01 0.01 0.01 0.01 0.01 0.01 0.02 0.02 0.02 0.02 0.01 0.01 0.02 0.02 0.02 0.02 0.02 0.03 0.04 0.04 0.03 0.03 0.03 0.03 0.03 0.03 0.02
0.02 0.02 0.02 0.03 0.03 0.04 0.03 0.03 0.02 0.02 0.01 0.01 0.01 0.01 0.01 0.01 0.01 0.02 0.04 0.04 0.04 0.02 0.01 0.02 0.02 0.03 0.03 0.03 0.02 0.02 0.03 0.03 0.03 0.03 0.04 0.04 0.03 0.02
0.02 0.02 0.02 0.03 0.03 0.03 0.03 0.03 0.03 0.02 0.02 0.02 0.02 0.01 0.01 0.01 0.01 0.01 0.02 0.03 0.03 0.03 0.02 0.02 0.03 0.03 0.04 0.04 0.03 0.02 0.03 0.04 0.04 0.04 0.04 0.03 0.03 0.03
0.02 0.02 0.01 0.02 0.02 0.02 0.03 0.03 0.03 0.03 0.02 0.02 0.01 0.01 0.01 0.01 0.01 0.01 0.01 0.02 0.03 0.03 0.02 0.03 0.04 0.04 0.04 0.04 0.03 0.03 0.03 0.03 0.04 0.05 0.04 0.03 0.03 0.03
0.02 0.02 0.02 0.02 0.02 0.02 0.02 0.02 0.02 0.02 0.02 0.02 0.02 0.02 0.02 0.02 0.01 0.01 0.02 0.02 0.03 0.03 0.03 0.04 0.04 0.03 0.04 0.04 0.04 0.04 0.04 0.04 0.04 0.03 0.03 0.03 0.02 0.02
0.02 0.02 0.02 0.02 0.02 0.02 0.02 0.02 0.02 0.02 0.03 0.03 0.02 0.02 0.01 0.02 0.03 0.02 0.02 0.03 0.03 0.03 0.03 0.03 0.03 0.03 0.04 0.04 0.04 0.05 0.05 0.05 0.03 0.02 0.02 0.03 0.02 0.02
0.02 0.02 0.02 0.02 0.02 0.02 0.02 0.02 0.02 0.02 0.02 0.02 0.02 0.02 0.02 0.03 0.03 0.04 0.03 0.03 0.03 0.03 0.02 0.02 0.02 0.03 0.03 0.04 0.05 0.05 0.04 0.04 0.03 0.03 0.03 0.03 0.03 0.03
0.02 0.02 0.02 0.02 0.02 0.02 0.02 0.02 0.02 0.02 0.02 0.02 0.02 0.02 0.03 0.03 0.04 0.04 0.04 0.03 0.03 0.03 0.03 0.02 0.02 0.03 0.03 0.04 0.05 0.04 0.04 0.04 0.03 0.03 0.03 0.04 0.04 0.03
0.02 0.02 0.01 0.01 0.02 0.02 0.02 0.02 0.02 0.02 0.02 0.02 0.02 0.02 0.03 0.03 0.04 0.04 0.04 0.04 0.03 0.03 0.03 0.03 0.03 0.03 0.04 0.04 0.04 0.04 0.04 0.04 0.03 0.04 0.04 0.04 0.04 0.03
0.01 0.01 0.01 0.01 0.01 0.01 0.01 0.02 0.02 0.02 0.02 0.02 0.02 0.03 0.03 0.03 0.03 0.03 0.03 0.03 0.03 0.03 0.03 0.03 0.04 0.04 0.04 0.04 0.04 0.05 0.04 0.04 0.03 0.04 0.04 0.04 0.04 0.03
0.01 0.01 0.01 0.01 0.01 0.01 0.01 0.02 0.02 0.02 0.02 0.02 0.02 0.03 0.03 0.03 0.02 0.02 0.03 0.03 0.03 0.03 0.03 0.03 0.04 0.04 0.04 0.04 0.04 0.04 0.05 0.04 0.04 0.04 0.04 0.03 0.03 0.03
0.01 0.01 0.01 0.01 0.01 0.01 0.01 0.01 0.02 0.02 0.02 0.02 0.02 0.02 0.02 0.02 0.02 0.02 0.03 0.03 0.03 0.03 0.03 0.04 0.04 0.04 0.05 0.05 0.05 0.04 0.04 0.04 0.04 0.04 0.03 0.03 0.03 0.03
0.02 0.02 0.02 0.01 0.01 0.02 0.01 0.01 0.01 0.02 0.02 0.02 0.02 0.02 0.02 0.02 0.02 0.02 0.02 0.02 0.02 0.03 0.03 0.03 0.03 0.04 0.05 0.05 0.05 0.04 0.04 0.03 0.03 0.03 0.03 0.02 0.02 0.02
MSLP
1016.57 1016.47 1016.44 1016.43 1016.41 1016.33 1016.19 1015.97 1015.70 1015.40 1015.09 1014.80 1014.53 1014.30 1014.09 1013.89 1013.69 1013.47 1013.22 1012.95 1012.68 1012.43 1012.22 1012.06 1011.96 1011.91 1011.88 1011.86 1011.80 1011.67 1011.47 1011.20 1010.86 1010.48 1010.10 1009.75 1009.47 1009.27
1016.04 1015.93 1015.88 1015.85 1015.80 1015.71 1015.56 1015.35 1015.09 1014.81 1014.53 1014.28 1014.06 1013.88 1013.72 1013.56 1013.40 1013.20 1012.97 1012.72 1012.45 1012.19 1011.97 1011.79 1011.67 1011.61 1011.58 1011.56 1011.52 1011.44 1011.30 1011.09 1010.83 1010.53 1010.22 1009.92 1009.67 1009.47
1015.43 1015.30 1015.22 1015.17 1015.11 1015.01 1014.86 1014.67 1014.45 1014.21 1013.97 1013.77 1013.60 1013.47 1013.35 1013.24 1013.10 1012.93 1012.72 1012.46 1012.19 1011.92 1011.67 1011.47 1011.33 1011.23 1011.18 1011.16 1011.13 1011.08 1011.00 1010.86 1010.68 1010.48 1010.26 1010.04 1009.84 1009.69
1014.73 1014.57 1014.47 1014.40 1014.33 1014.23 1014.09 1013.93 1013.74 1013.55 1013.37 1013.22 1013.11 1013.02 1012.95 1012.86 1012.76 1012.60 1012.41 1012.16 1011.89 1011.62 1011.36 1011.13 1010.96 1010.83 1010.75 1010.71 1010.68 1010.64 1010.59 1010.52 1010.42 1010.30 1010.17 1010.04 1009.92 1009.82
1013.96 1013.77 1013.65 1013.55 1013.46 1013.36 1013.24 1013.10 1012.95 1012.80 1012.68 1012.58 1012.51 1012.47 1012.43 1012.38 1012.31 1012.18 1012.01 1011.80 1011.54 1011.28 1011.02 1010.79 1010.59 1010.44 1010.33 1010.25 1010.20 1010.16 1010.12 1010.08 1010.03 1009.98 1009.93 1009.89 1009.84 1009.81
1013.13 1012.92 1012.76 1012.64 1012.53 1012.42 1012.30 1012.18 1012.06 1011.95 1011.86 1011.81 1011.78 1011.77 1011.77 1011.76 1011.72 1011.64 1011.51 1011.33 1011.13 1010.90 1010.67 1010.45 1010.25 1010.08 1009.94 1009.83 1009.74 1009.68 1009.62 1009.59 1009.56 1009.55 1009.55 1009.57 1009.59 1009.62
1012.28 1012.04 1011.85 1011.70 1011.56 1011.44 1011.32 1011.20 1011.09 1011.01 1010.95 1010.92 1010.92 1010.94 1010.97 1010.99 1010.99 1010.96 1010.89 1010.78 1010.64 1010.47 1010.29 1010.10 1009.92 1009.75 1009.59 1009.45 1009.33 1009.22 1009.13 1009.08 1009.05 1009.05 1009.08 1009.13 1009.20 1009.28
1011.42 1011.15 1010.93 1010.75 1010.59 1010.45 1010.31 1010.19 1010.09 1010.02 1009.97 1009.96 1009.97 1010.01 1010.06 1010.12 1010.16 1010.19 1010.18 1010.15 1010.09 1009.99 1009.88 1009.75 1009.60 1009.44 1009.27 1009.10 1008.94 1008.80 1008.67 1008.58 1008.53 1008.52 1008.55 1008.62 1008.72 1008.83
1010.58 1010.30 1010.05 1009.84 1009.66 1009.50 1009.36 1009.23 1009.13 1009.05 1009.01 1009.00 1009.02 1009.06 1009.13 1009.21 1009.29 1009.36 1009.42 1009.46 1009.47 1009.46 1009.41 1009.34 1009.23 1009.10 1008.94 1008.76 1008.57 1008.40 1008.24 1008.12 1008.05 1008.03 1008.05 1008.12 1008.23 1008.36
1009.78 1009.48 1009.23 1009.01 1008.82 1008.65 1008.51 1008.38 1008.28 1008.20 1008.15 1008.14 1008.15 1008.19 1008.26 1008.34 1008.44 1008.55 1008.65 1008.74 1008.82 1008.87 1008.88 1008.86 1008.79 1008.68 1008.54 1008.37 1008.18 1008.00 1007.83 1007.70 1007.62 1007.59 1007.62 1007.69 1007.80 1007.93
1009.04 1008.74 1008.49 1008.28 1008.10 1007.95 1007.82 1007.71 1007.61 1007.54 1007.48 1007.45 1007.45 1007.48 1007.53 1007.60 1007.69 1007.80 1007.92 1008.03 1008.13 1008.22 1008.27 1008.28 1008.25 1008.17 1008.04 1007.89 1007.72 1007.56 1007.41 1007.30 1007.24 1007.22 1007.26 1007.34 1007.45 1007.58
1008.38 1008.10 1007.88 1007.70 1007.56 1007.44 1007.34 1007.25 1007.18 1007.11 1007.05 1007.00 1006.97 1006.97 1006.98 1007.02 1007.08 1007.16 1007.25 1007.36 1007.45 1007.54 1007.59 1007.61 1007.59 1007.53 1007.43 1007.31 1007.18 1007.05 1006.95 1006.89 1006.87 1006.89 1006.96 1007.06 1007.18 1007.30
1007.82 1007.58 1007.41 1007.28 1007.20 1007.13 1007.08 1007.03 1006.97 1006.91 1006.85 1006.78 1006.72 1006.67 1006.63 1006.62 1006.62 1006.65 1006.70 1006.75 1006.81 1006.86 1006.89 1006.89 1006.86 1006.80 1006.72 1006.63 1006.54 1006.47 1006.43 1006.43 1006.47 1006.56 1006.67 1006.80 1006.93 1007.04
1007.42 1007.24 1007.12 1007.06 1007.04 1007.04 1007.03 1007.02 1006.98 1006.93 1006.86 1006.77 1006.67 1006.57 1006.47 1006.39 1006.33 1006.29 1006.27 1006.25 1006.24 1006.23 1006.21 1006.16 1006.11 1006.03 1005.95 1005.88 1005.83 1005.81 1005.83 1005.90 1006.01 1006.16 1006.33 1006.49 1006.64 1006.75
1007.20 1007.08 1007.04 1007.04 1007.08 1007.12 1007.16 1007.17 1007.15 1007.10 1007.01 1006.89 1006.75 1006.60 1006.45 1006.31 1006.18 1006.07 1005.97 1005.88 1005.79 1005.71 1005.61 1005.51 1005.40 1005.30 1005.20 1005.13 1005.09 1005.11 1005.18 1005.30 1005.47 1005.67 1005.87 1006.07 1006.23 1006.34
1007.21 1007.15 1007.16 1007.22 1007.29 1007.36 1007.42 1007.43 1007.41 1007.33 1007.22 1007.07 1006.89 1006.71 1006.51 1006.32 1006.14 1005.97 1005.80 1005.65 1005.49 1005.33 1005.16 1004.99 1004.82 1004.66 1004.53 1004.43 1004.39 1004.41 1004.49 1004.64 1004.83 1005.06 1005.29 1005.50 1005.67 1005.78
1007.44 1007.43 1007.47 1007.55 1007.63 1007.70 1007.74 1007.73 1007.67 1007.57 1007.42 1007.24 1007.03 1006.81 1006.59 1006.37 1006.16 1005.95 1005.75 1005.54 1005.33 1005.11 1004.88 1004.64 1004.40 1004.18 1003.99 1003.85 1003.77 1003.76 1003.82 1003.95 1004.14 1004.36 1004.58 1004.79 1004.95 1005.05
1007.87 1007.88 1007.93 1007.99 1008.04 1008.07 1008.05 1007.99 1007.88 1007.72 1007.53 1007.32 1007.09 1006.86 1006.63 1006.41 1006.20 1005.98 1005.76 1005.53 1005.29 1005.03 1004.74 1004.45 1004.15 1003.86 1003.61 1003.41 1003.26 1003.20 1003.20 1003.28 1003.42 1003.60 1003.79 1003.97 1004.10 1004.19
1008.42 1008.43 1008.45 1008.46 1008.45 1008.40 1008.30 1008.16 1007.98 1007.76 1007.53 1007.28 1007.04 1006.81 1006.60 1006.39 1006.19 1005.99 1005.78 1005.55 1005.29 1005.01 1004.69 1004.35 1004.01 1003.66 1003.35 1003.07 1002.86 1002.72 1002.66 1002.66 1002.73 1002.83 1002.96 1003.09 1003.18 1003.24
1009.00 1008.99 1008.96 1008.89 1008.79 1008.64 1008.44 1008.20 1007.94 1007.66 1007.38 1007.11 1006.87 1006.65 1006.45 1006.26 1006.09 1005.92 1005.72 1005.51 1005.25 1004.96 1004.62 1004.26 1003.88 1003.50 1003.13 1002.80 1002.53 1002.32 1002.18 1002.10 1002.08 1002.11 1002.16 1002.21 1002.25 1002.26
1009.54 1009.47 1009.37 1009.21 1009.00 1008.74 1008.43 1008.10 1007.76 1007.42 1007.10 1006.81 1006.56 1006.35 1006.17 1006.01 1005.86 1005.71 1005.53 1005.32 1005.07 1004.78 1004.44 1004.07 1003.67 1003.27 1002.89 1002.53 1002.21 1001.95 1001.75 1001.61 1001.51 1001.45 1001.42 1001.39 1001.36 1001.31
1009.93 1009.81 1009.63 1009.37 1009.06 1008.69 1008.28 1007.87 1007.45 1007.07 1006.72 1006.41 1006.16 1005.95 1005.78 1005.63 1005.49 1005.33 1005.16 1004.95 1004.70 1004.40 1004.07 1003.70 1003.31 1002.92 1002.55 1002.19 1001.87 1001.59 1001.36 1001.17 1001.01 1000.88 1000.77 1000.66 1000.55 1000.43
1010.15 1009.97 1009.70 1009.36 1008.95 1008.50 1008.02 1007.53 1007.07 1006.65 1006.27 1005.96 1005.69 1005.48 1005.30 1005.14 1004.98 1004.81 1004.62 1004.39 1004.12 1003.82 1003.49 1003.14 1002.78 1002.43 1002.09 1001.77 1001.48 1001.22 1000.99 1000.78 1000.59 1000.41 1000.23 1000.04 999.85 999.64
Thickness
5457 5456 5455 5454 5452 5451 5450 5449 5449 5454 5461 5462 5460 5460 5459 5459 5460 5461 5463 5465 5467 5469 5472 5474 5476 5478 5479 5481 5483 5484 5486 5487 5489 5490 5491 5493 5494 5496
5447 5445 5444 5443 5442 5441 5439 5438 5438 5439 5444 5449 5446 5445 5445 5446 5446 5447 5449 5452 5454 5456 5459 5462 5464 5466 5468 5470 5471 5473 5474 5476 5477 5478 5480 5481 5482 5483
5436 5434 5433 5432 5431 5429 5428 5427 5427 5426 5430 5436 5434 5433 5433 5433 5434 5435 5437 5439 5442 5444 5447 5449 5452 5454 5457 5459 5460 5462 5463 5464 5465 5467 5468 5469 5470 5471
5425 5424 5422 5421 5420 5418 5417 5416 5416 5416 5417 5422 5423 5422 5422 5422 5423 5424 5426 5428 5430 5432 5435 5437 5440 5443 5445 5447 5449 5450 5452 5453 5454 5456 5457 5458 5459 5459
5416 5414 5413 5411 5410 5409 5407 5407 5406 5407 5407 5409 5412 5412 5412 5412 5412 5414 5415 5417 5419 5421 5423 5425 5428 5431 5433 5436 5438 5439 5441 5442 5444 5445 5445 5446 5448 5449
5407 5406 5405 5403 5402 5400 5399 5399 5398 5397 5397 5398 5401 5402 5402 5402 5401 5403 5406 5407 5409 5411 5412 5414 5417 5419 5422 5424 5427 5429 5430 5432 5433 5434 5435 5436 5437 5438
5399 5398 5397 5395 5394 5393 5392 5391 5390 5388 5388 5389 5391 5392 5392 5391 5392 5393 5395 5398 5400 5401 5402 5404 5406 5409 5411 5413 5416 5418 5420 5422 5423 5424 5425 5427 5427 5428
5391 5390 5389 5387 5386 5385 5384 5383 5382 5380 5380 5380 5381 5382 5383 5382 5381 5382 5384 5386 5390 5392 5391 5395 5396 5398 5401 5403 5406 5408 5410 5412 5413 5414 5415 5417 5418 5419
5384 5382 5381 5380 5379 5377 5376 5375 5373 5372 5372 5371 5372 5373 5373 5373 5373 5374 5374 5375 5378 5380 5380 5386 5387 5389 5392 5394 5397 5400 5402 5403 5404 5405 5407 5408 5409 5409
5376 5375 5373 5372 5371 5370 5369 5368 5366 5365 5364 5364 5364 5364 5364 5364 5364 5365 5365 5366 5369 5370 5371 5375 5379 5381 5384 5386 5388 5391 5392 5394 5396 5397 5399 5400 5401 5401
5370 5369 5367 5366 5366 5365 5363 5361 5360 5359 5358 5357 5357 5357 5357 5357 5356 5356 5357 5358 5362 5364 5364 5365 5369 5371 5375 5378 5380 5381 5383 5386 5388 5390 5392 5393 5393 5393
5365 5363 5362 5360 5360 5359 5357 5355 5354 5353 5352 5351 5351 5350 5349 5349 5349 5349 5349 5350 5353 5356 5357 5357 5359 5360 5366 5369 5371 5372 5374 5376 5379 5381 5384 5385 5386 5386
5359 5358 5356 5355 5354 5353 5352 5350 5349 5347 5345 5344 5343 5343 5342 5342 5342 5342 5342 5342 5345 5347 5349 5349 5351 5351 5353 5358 5362 5363 5365 5368 5370 5372 5374 5376 5378 5379
5353 5352 5351 5350 5348 5347 5345 5344 5343 5340 5338 5336 5335 5335 5335 5335 5335 5335 5336 5337 5338 5340 5342 5342 5344 5344 5345 5348 5352 5355 5357 5360 5362 5364 5366 5368 5370 5372
5347 5347 5345 5344 5342 5340 5338 5337 5335 5333 5331 5329 5328 5328 5327 5327 5328 5329 5331 5332 5333 5335 5336 5337 5338 5339 5340 5342 5344 5347 5349 5352 5355 5357 5359 5361 5362 5364
5341 5340 5339 5337 5334 5333 5331 5329 5328 5326 5324 5323 5321 5321 5321 5322 5323 5324 5325 5327 5328 5330 5331 5332 5333 5334 5335 5337 5338 5341 5342 5344 5348 5350 5352 5354 5356 5358
5335 5333 5331 5329 5327 5326 5324 5322 5321 5320 5318 5317 5316 5316 5316 5317 5318 5319 5320 5322 5323 5324 5326 5327 5328 5330 5331 5332 5334 5336 5337 5340 5342 5344 5346 5348 5350 5352
5330 5327 5324 5322 5320 5319 5318 5317 5315 5314 5313 5313 5312 5312 5312 5313 5314 5315 5316 5317 5318 5319 5320 5322 5323 5326 5327 5329 5330 5331 5333 5335 5338 5340 5341 5343 5346 5347
5324 5321 5319 5317 5315 5313 5312 5311 5310 5309 5308 5308 5308 5307 5308 5309 5310 5311 5312 5313 5314 5315 5316 5317 5318 5320 5322 5324 5325 5327 5329 5331 5333 5335 5337 5338 5340 5343
5318 5316 5314 5312 5311 5309 5308 5307 5306 5305 5305 5304 5304 5304 5304 5305 5306 5307 5308 5309 5310 5311 5312 5313 5313 5314 5316 5317 5319 5321 5324 5326 5328 5330 5332 5334 5336 5339
5313 5312 5310 5308 5307 5306 5305 5304 5303 5302 5302 5301 5301 5301 5301 5302 5303 5304 5304 5306 5306 5307 5308 5309 5309 5311 5312 5313 5314 5317 5319 5321 5323 5326 5328 5330 5333 5335
5309 5308 5307 5305 5304 5303 5302 5301 5300 5300 5299 5299 5298 5298 5298 5299 5300 5300 5301 5302 5302 5303 5304 5305 5307 5308 5309 5310 5310 5312 5314 5317 5320 5322 5324 5327 5328 5330
5306 5305 5304 5303 5302 5301 5300 5299 5298 5298 5297 5296 5296 5296 5297 5297 5297 5298 5298 5299 5300 5300 5301 5302 5304 5305 5305 5306 5306 5307 5309 5312 5315 5318 5321 5324 5327 5329